Tracking 23722 objects as of 15-Oct-2021
HD Live streaming from Space Station
objects crossing your sky now

SL-12 R/B(2)

Track SL-12 R/B(2) now!


NORAD ID: 20836
Int'l Code: 1974-060F
Perigee: 35,736.7 km
Apogee: 35,897.1 km
Inclination: 5.7 °
Period: 1,437.3 minutes
Semi major axis: 42187 km
RCS: 3.1622 m2 (large)
Launch date: July 29, 1974
Source: Commonwealth of Independent States (former USSR) (CIS)
Launch site: TYURATAM MISSILE AND SPACE COMPLEX (TTMTR)

Note: This is a ROCKET BODY
aabbcc
Your satellite tracking list
Your tracking list is empty




NASA's NSSDC Master Catalog

Two Line Element Set (TLE):
1 20836U 74060F   21288.51582587 -.00000294  00000-0  00000-0 0  9994
2 20836   5.7081 286.2543 0019004 168.9743 211.5154  1.00189169 28907
Source of the keplerian elements: AFSPC